NOAA 16 DEB, 41087

Orbit data source: Space-Track

NOAA 16 DEB, 41087 is space debris in SSO originally from a launch on Thu, 21 Sep 2000 UTC launched from the Air Force Western Test Range (AFWTR). Debris objects in space refer to the collection of defunct objects orbiting the Earth. Examples of debris include non-operational satellites, rocket bodies, and fragments generated from explosions, collisions, or faulty payload assembly.

Loading next visibility...
Identifier
41087, 2000-055AW
Orbit
SSO
Country
Flag of USUS
Related business
Manufacturer
Unknown
Mission
Spacecraft
Bus & Motor
Unknown
Mass
Unknown
Launch date (UTC)
2000-09-21 (26 years ago)
Launch vehicle
Unknown
Launch site
Air Force Western Test Range (AFWTR)
Object type
Payload
Rocket body
Debris
Shape & HBR
Unknown shape, 0.1 m
Radar Cross Section
Medium (>0.1 m² and <1 m²)

Expand to show TLE details & history
Last TLE update: 2 days ago

TLE from 2 days ago
0 NOAA 16 DEB
1 41087U 00055AW  26171.32033515  .00000662  00000-0  37216-3 0  9995
2 41087  98.5503 184.0768 0014664 149.9207 210.2812 14.13682437543174
Epoch: 2026-06-20T07:41Z
TLE epoch observation values (Epoch: 2026-06-20T07:41:16.956Z)
Latitude
-0.00001°
Longitude
160.2195°
Altitude
858.864 km
Speed
7.418 km/s
True Right ascension
12h 16m 18s
True Declination
0° 00' 00"
Sunlit
Object was in daylight at epoch
Visualization orbit readout
Latitude
Unknown
Longitude
Unknown
Altitude
Unknown
Speed
Unknown
Apparent Right ascension
Unknown
Apparent Declination
Unknown
Sunlit
N/A
Visualization observer readout
Local Sidereal Time
21:57:16
Azimuth
Unknown
Elevation
Unknown
Doppler factor
Unknown
Orbital elements
Apogee altitude
854.548 km
Perigee altitude
833.367 km
Semi-major axis
7,222.094 km
Eccentricity
0.00147
Inclination
98.5503°
RAAN
184.0768°
Arg. of periapsis
149.9207°
True anomaly
210.1966°
Mean anomaly
210.2812°
Eccentric anomaly
210.23889°
Mean motion
3.53629 °/min
Orbital period
101.8 mins
BSTAR
0.00037216
Loading maneuver chart data...
Computing Atmospheric mass density...
Loading historical data...
Loading historical data...
Loading historical data...
Loading historical data...
Loading historical data...
Loading historical data...
Loading historical data...

Documentation

Showing up to 5 results
|